Home   Weather   Richmond   Past weeks
Flag for USA

Past Weather in Richmond, Virginia, USA — January 2017

Now
60 °F

Passing clouds.


Feels Like: 60 °F
Forecast: 77 / 51 °F
Wind: 9 mph from Southeast

Location: Richmond International Airport

Current Time: Apr 6, 2020 at 10:04:25 pm

Latest Report: Apr 6, 2020 at 8:54 pm


Visibility: 10 mi

Pressure: 30.01 "Hg

Humidity: 75%

Dew Point: 52 °F

Location of RichmondLocation

January 2017 Weather in Richmond — Graph

°F

High & Low Weather Summary for January 2017

 TemperatureHumidityPressure
High70 °F (Jan 12, 1:54 pm)100% (Jan 2, 2:54 am)30.85 "Hg (Jan 2, 2:54 am)
Low1 °F (Jan 9, 6:54 am)23% (Jan 26, 1:54 pm)29.27 "Hg (Jan 23, 9:04 am)
Average42 °F76%30.05 "Hg
* Reported Jan 1 12:54 am — Jan 31 11:54 pm, Richmond. Weather by CustomWeather, © 2020

Note: Actual official high and low records may vary slightly from our data, if they occured in-between our weather recording intervals... More about our weather records

Richmond Weather History for January 1, 2017

Scroll right to see more
 ConditionsComfort  
Time TempWeatherWind HumidityBarometerVisibility
12:54 am
Sun, Jan 1
46 °FMostly cloudy.10 mph42%30.06 "Hg10 mi
1:54 am46 °FMostly cloudy.12 mph44%30.07 "Hg10 mi
2:54 am45 °FPartly cloudy.8 mph49%30.09 "Hg10 mi
3:54 am45 °FMostly cloudy.9 mph51%30.09 "Hg10 mi
4:54 am44 °FPassing clouds.7 mph58%30.09 "Hg10 mi
5:54 am42 °FPartly cloudy.5 mph62%30.11 "Hg10 mi
6:54 am42 °FPassing clouds.6 mph62%30.14 "Hg10 mi
7:54 am37 °FBroken clouds.8 mph76%30.17 "Hg10 mi
8:54 am46 °FPartly sunny.6 mph58%30.19 "Hg10 mi
9:54 am51 °FPartly sunny.8 mph54%30.20 "Hg10 mi
10:54 am52 °FPartly sunny.5 mph53%30.21 "Hg10 mi
11:54 am54 °FPartly sunny.6 mph51%30.21 "Hg10 mi
12:54 pm55 °FPartly sunny.3 mph51%30.20 "Hg10 mi
1:54 pm57 °FPartly sunny.3 mph47%30.21 "Hg10 mi
2:54 pm58 °FBroken clouds.3 mph47%30.22 "Hg10 mi
3:54 pm57 °FScattered clouds.3 mph49%30.24 "Hg10 mi
4:54 pm53 °FBroken clouds.5 mph56%30.27 "Hg10 mi
5:54 pm51 °FPassing clouds.7 mph63%30.27 "Hg10 mi
6:54 pm49 °FPassing clouds.7 mph61%30.33 "Hg10 mi
7:54 pm48 °FPassing clouds.6 mph59%30.33 "Hg10 mi
8:54 pm48 °FOvercast.6 mph56%30.34 "Hg10 mi
9:54 pm48 °FOvercast.8 mph56%30.35 "Hg10 mi
10:54 pm47 °FOvercast.7 mph64%30.36 "Hg10 mi
11:24 pm47 °FOvercast.7 mph64%30.34 "Hg10 mi
11:54 pm46 °FLight rain. Mostly cloudy.6 mph71%30.34 "Hg10 mi
Weather by CustomWeather, © 2020

See weather overview

Advertising